[[{"header":{"parameterUnit":"m.s-1","parameterCategory":1,"la1":30.2991,"la2":30.254,"lo1":-89.0895,"lo2":-89.0444,"dy":0.0017,"dx":0.0017,"nx":28,"ny":28,"refTime":"2024-05-30T21:00:00:Z","depth":0,"parameterNumber":2,"parameterNumberName":"U-component_of_WINDS"},"data":[0,0,0,0,0,0,0,0,0,0,0,0,0,0,0,0,0,0,0,0,0,0,0,0,0,0,0,0,0,0,0,0,0,0,0,0,0,0,0,0,0,0,0,0,0,0,0,0,0,0,0,0,0,0,0,0,0,0,-4.0446,-4.0447,0,-4.0493,-4.0493,-4.0494,-4.0493,-4.0492,-4.0492,-4.0491,-4.0537,-4.0539,-4.0541,0,0,0,0,0,0,0,0,0,0,0,0,0,-4.0357,-4.0359,-4.0446,-4.0447,-4.0447,-4.0492,-4.0493,-4.0494,-4.0493,-4.0492,-4.0492,-4.0491,-4.0536,-4.0539,-4.0541,0,0,0,0,0,0,0,0,0,0,0,0,0,-4.0399,-4.0359,-4.0446,-4.0453,-4.0454,-4.0492,-4.0493,-4.0494,-4.0493,-4.0492,-4.0491,-4.0491,-4.0536,-4.0538,-4.0541,-4.0576,0,0,-4.0549,-4.055,0,0,0,0,0,0,0,0,-4.0396,-4.0402,-4.0451,-4.0452,-4.0453,-4.0486,-4.0478,-4.0521,-4.0493,-4.0478,-4.0491,-4.049,-4.0521,-4.0525,-4.0535,-4.0578,-4.058,-4.0549,-4.0551,-4.0552,-4.0553,0,0,0,0,0,0,0,-4.0393,-4.04,-4.0464,-4.0452,-4.0453,-4.0453,-4.0458,-4.0487,-4.0504,-4.0479,-4.0479,-4.0485,-4.0521,-4.0533,-4.0536,-4.0581,-4.0549,-4.0552,-4.0553,-4.0555,-4.0655,-4.0656,0,0,0,0,0,0,-4.0389,-4.0398,-4.0463,-4.0466,-4.0422,-4.0455,-4.0461,-4.0476,-4.0504,-4.0507,-4.0486,-4.0485,-4.0529,-4.0533,-4.0538,-4.058,-4.0552,-4.0555,-4.0556,-4.0654,-4.0655,-4.0657,0,0,0,0,0,0,-4.0387,-4.0395,-4.0461,-4.0432,-4.044,-4.0458,-4.0475,-4.0478,-4.0489,-4.0509,-4.0512,-4.0494,-4.0528,-4.0534,-4.0567,-4.0582,-4.0556,-4.0558,-4.0653,-4.0655,-4.0656,-4.0665,0,0,0,0,0,0,-4.0385,-4.0394,-4.0408,-4.0432,-4.0442,-4.0489,-4.0476,-4.0479,-4.0494,-4.0493,-4.0517,-4.052,-4.0528,-4.0563,-4.0569,-4.0585,-4.0561,-4.0652,-4.0654,-4.0655,-4.0664,-4.0667,-4.067,0,0,0,0,0,-4.0382,-4.0408,-4.0408,-4.0416,-4.0459,-4.049,-4.0495,-4.0504,-4.0495,-4.0509,-4.0522,-4.052,-4.058,-4.0566,-4.0574,-4.059,-4.0651,-4.0653,-4.0655,-4.0662,-4.0666,-4.067,0,0,0,0,0,0,-4.0384,-4.0411,-4.0412,-4.0447,-4.0466,-4.049,-4.0507,-4.0508,-4.0529,-4.0528,-4.0537,-4.0542,-4.0575,-4.0586,-4.057,-4.0626,-4.0614,-4.0618,-4.0617,-4.0621,-4.0624,-4.0619,-4.0563,0,0,0,0,0,-4.0389,-4.0412,-4.0435,-4.0464,-4.0473,-4.0489,-4.0502,-4.0508,-4.0528,-4.0535,-4.055,-4.057,-4.0593,-4.0608,-4.063,-4.0666,-4.0671,-4.0682,-4.0685,-4.0687,-4.069,-4.071,-4.0714,-4.0664,-4.0664,-4.0664,0,0,-4.0398,-4.0416,-4.043,-4.0465,-4.048,-4.0504,-4.0495,-4.052,-4.0538,-4.0539,-4.057,-4.0583,-4.0605,-4.0639,-4.0655,-4.065,-4.0705,-4.069,-4.0692,-4.0693,-4.0713,-4.0717,-4.0721,-4.0666,-4.0666,-4.0666,0,0,-4.0428,-4.0444,-4.047,-4.0486,-4.051,-4.052,-4.0527,-4.0551,-4.0559,-4.0591,-4.0592,-4.0614,-4.0654,-4.0669,-4.0683,-4.0721,-4.0719,-4.0728,-4.0743,-4.0762,-4.0766,-4.077,-4.0782,-4.0787,-4.0731,-4.0731,-4.0731,0,-4.0436,-4.0472,-4.0483,-4.0508,-4.0523,-4.0527,-4.0553,-4.0568,-4.0598,-4.0608,-4.0602,-4.0653,-4.0668,-4.0706,-4.0716,-4.0727,-4.0734,-4.0724,-4.0765,-4.0769,-4.0772,-4.0784,-4.0789,-4.0732,-4.0732,-4.0732,-4.0732,0,-4.0481,-4.0506,-4.0524,-4.0554,-4.0571,-4.0597,-4.0611,-4.0628,-4.0632,-4.0643,-4.0676,-4.0695,-4.0722,-4.0732,-4.0736,-4.0771,-4.0767,-4.0763,-4.0751,-4.0777,-4.0789,-4.0793,-4.0733,-4.0733,-4.0732,-4.0732,0,0,-4.0511,-4.0547,-4.0553,-4.0567,-4.0595,-4.0614,-4.0641,-4.0668,-4.0681,-4.0703,-4.0724,-4.0759,-4.0756,-4.0771,-4.0778,-4.0795,-4.0823,-4.0789,-4.079,-4.0794,-4.0862,-4.0863,-4.0868,-4.0824,-4.0825,-4.0826,-4.086,0,-4.0542,-4.0588,-4.06,-4.0639,-4.0663,-4.0668,-4.0691,-4.071,-4.0722,-4.0744,-4.0757,-4.0781,-4.0776,-4.0785,-4.0802,-4.0816,-4.0837,-4.0814,-4.0843,-4.0844,-4.0835,-4.0875,-4.0876,-4.0907,-4.0864,-4.0865,-4.0866,0,-4.0584,-4.0606,-4.0649,-4.0674,-4.0684,-4.0705,-4.073,-4.0751,-4.0774,-4.0781,-4.08,-4.0805,-4.0833,-4.0821,-4.086,-4.0844,-4.0857,-4.0866,-4.0867,-4.0869,-4.0855,-4.0875,-4.0917,-4.0921,-4.0873,-4.0873,-4.0872,0,-4.0599,-4.0641,-4.0671,-4.0683,-4.0714,-4.0728,-4.0742,-4.0764,-4.0779,-4.0802,-4.0813,-4.0839,-4.0852,-4.0872,-4.0884,-4.0875,-4.0921,-4.0911,-4.0928,-4.0927,-4.0935,-4.0934,-4.0978,-4.0947,-4.0947,-4.0947,-4.0947,0,-4.0632,-4.0657,-4.0679,-4.0697,-4.0726,-4.074,-4.0768,-4.0782,-4.0801,-4.0823,-4.083,-4.085,-4.0865,-4.0888,-4.0898,-4.0928,-4.0934,-4.0941,-4.0942,-4.0939,-4.0938,-4.0946,-4.0943,-4.0948,-4.0948,-4.0947,-4.0947,0,-4.0653,-4.0669,-4.0702,-4.0729,-4.0737,-4.0757,-4.078,-4.0798,-4.0811,-4.0838,-4.0846,-4.0866,-4.0892,-4.0907,-4.0941,-4.0948,-4.0981,-4.0982,-4.0973,-4.0973,-4.0988,-4.0986,-4.1037,-4.1044,-4.101,-4.101,-4.1011,0,-4.0671,-4.0691,-4.0721,-4.0736,-4.0749,-4.0774,-4.079,-4.0805,-4.0821,-4.085,-4.0865,-4.0892,-4.0914,-4.0957,-4.0974,-4.1,-4.1002,-4.1018,-4.1006,-4.1001,-4.1,-4.0998,-4.1,-4.1019,-4.102,-4.102,-4.102,0,-4.0702,-4.0709,-4.0733,-4.0759,-4.0779,-4.08,-4.0821,-4.0834,-4.0852,-4.087,-4.0898,-4.0916,-4.0951,-4.0977,-4.1005,-4.1019,-4.1022,-4.1025,-4.1029,-4.1025,-4.1018,-4.102,-4.0977,-4.1023,-4.1022,-4.1022,-4.1022,-4.1022,-4.0722,-4.0739,-4.0763,-4.0789,-4.0807,-4.0827,-4.0846,-4.0862,-4.0885,-4.0915,-4.0922,-4.0951,-4.0975,-4.1013,-4.1028,-4.1051,-4.1047,-4.1055,-4.1056,-4.1057,-4.1057,-4.1016,-4.1056,-4.1056,-4.1056,-4.1056,-4.1056,0,-4.0752,-4.0768,-4.0792,-4.0822,-4.0842,-4.0845,-4.087,-4.0886,-4.0912,-4.0934,-4.0956,-4.0988,-4.1015,-4.1035,-4.1063,-4.1077,-4.1079,-4.1084,-4.1082,-4.1085,-4.1059,-4.1051,-4.1081,-4.1081,-4.1081,-4.1081,-4.1081,-4.1081,-4.077,-4.08,-4.081,-4.085,-4.0866,-4.0894,-4.0908,-4.0926,-4.0944,-4.0979,-4.1002,-4.1015,-4.1037,-4.1066,-4.1091,-4.1096,-4.1105,-4.1109,-4.1114,-4.1089,-4.1087,-4.1084,-4.1077,-4.1111,-4.1111,-4.1138,-4.1138,-4.1138]},{"header":{"parameterUnit":"m.s-1","parameterCategory":1,"la1":30.2991,"la2":30.254,"lo1":-89.0895,"lo2":-89.0444,"dy":0.0017,"dx":0.0017,"nx":28,"ny":28,"refTime":"2024-05-30T21:00:00:Z","depth":0,"parameterNumber":3,"parameterNumberName":"V-component_of_WINDS"},"data":[0,0,0,0,0,0,0,0,0,0,0,0,0,0,0,0,0,0,0,0,0,0,0,0,0,0,0,0,0,0,0,0,0,0,0,0,0,0,0,0,0,0,0,0,0,0,0,0,0,0,0,0,0,0,0,0,0,0,4.476,4.4761,0,4.4794,4.4794,4.4795,4.4828,4.4828,4.4829,4.4829,4.4861,4.4861,4.4862,0,0,0,0,0,0,0,0,0,0,0,0,0,4.4723,4.4724,4.476,4.4761,4.4761,4.4794,4.4794,4.4795,4.4828,4.4828,4.4829,4.4829,4.4861,4.4861,4.4862,0,0,0,0,0,0,0,0,0,0,0,0,0,4.4746,4.4724,4.476,4.4782,4.4784,4.4794,4.4794,4.4795,4.4828,4.4828,4.4829,4.483,4.486,4.4861,4.4862,4.4852,0,0,4.4864,4.4864,0,0,0,0,0,0,0,0,4.4745,4.4747,4.4778,4.478,4.4783,4.4807,4.4793,4.4814,4.4827,4.4811,4.4829,4.483,4.4842,4.4844,4.4849,4.4854,4.4855,4.4864,4.4864,4.4864,4.4865,0,0,0,0,0,0,0,4.4743,4.4746,4.4773,4.4778,4.4781,4.4789,4.4793,4.4797,4.4822,4.4812,4.4815,4.4819,4.4844,4.4848,4.485,4.4856,4.4864,4.4864,4.4865,4.4865,4.4855,4.4854,0,0,0,0,0,0,4.4739,4.4745,4.4772,4.4774,4.4765,4.4789,4.4794,4.4799,4.4822,4.4827,4.4818,4.482,4.4847,4.4849,4.4851,4.4843,4.4864,4.4865,4.4865,4.4856,4.4855,4.4854,0,0,0,0,0,0,4.4738,4.4741,4.4771,4.476,4.4765,4.4789,4.4794,4.4799,4.4804,4.4827,4.4831,4.4818,4.4848,4.4851,4.4852,4.4844,4.4865,4.4866,4.4856,4.4855,4.4855,4.4824,0,0,0,0,0,0,4.4736,4.474,4.4737,4.476,4.4765,4.4772,4.4794,4.4799,4.4805,4.4808,4.4828,4.4832,4.4848,4.4851,4.4853,4.4845,4.4866,4.4857,4.4856,4.4855,4.4826,4.4822,4.4819,0,0,0,0,0,4.4735,4.4726,4.4737,4.474,4.4762,4.4771,4.4774,4.4794,4.4804,4.4801,4.4816,4.4831,4.4845,4.4851,4.4853,4.4846,4.4858,4.4856,4.4855,4.4828,4.4823,4.4819,0,0,0,0,0,0,4.47,4.473,4.4742,4.474,4.4753,4.4777,4.4773,4.4788,4.4797,4.48,4.4823,4.4827,4.4826,4.4836,4.4843,4.4838,4.4854,4.4852,4.4832,4.4828,4.4824,4.4822,4.4867,0,0,0,0,0,4.4693,4.4699,4.4724,4.472,4.4726,4.4749,4.4753,4.4768,4.4781,4.4787,4.4802,4.4814,4.4821,4.4825,4.4833,4.4828,4.4833,4.4824,4.482,4.4818,4.4816,4.4815,4.4812,4.4849,4.4849,4.4849,0,0,4.4677,4.4694,4.4696,4.4714,4.4725,4.473,4.4753,4.4757,4.4761,4.4787,4.479,4.4801,4.4817,4.4815,4.4815,4.4823,4.4807,4.4816,4.4813,4.4814,4.4813,4.481,4.4807,4.4848,4.4849,4.4849,0,0,4.4651,4.4664,4.4663,4.4674,4.4692,4.4708,4.4707,4.4729,4.4738,4.4742,4.4762,4.4767,4.4778,4.4789,4.4795,4.4774,4.4789,4.4776,4.4758,4.4757,4.4754,4.4751,4.4744,4.4741,4.4775,4.4775,4.4775,0,4.4628,4.4637,4.466,4.4664,4.4671,4.4696,4.4696,4.4705,4.4724,4.4729,4.4738,4.4754,4.4766,4.4768,4.4763,4.4767,4.4767,4.4774,4.4752,4.475,4.4748,4.4742,4.4739,4.4773,4.4773,4.4773,4.4774,0,4.4609,4.4615,4.4612,4.4632,4.4639,4.464,4.4662,4.4667,4.4681,4.4695,4.4698,4.4714,4.4726,4.4727,4.474,4.4731,4.4736,4.4748,4.4764,4.4743,4.4737,4.4734,4.4771,4.4771,4.4772,4.4772,0,0,4.4561,4.4594,4.4593,4.4602,4.4625,4.4629,4.4632,4.4645,4.4648,4.466,4.4663,4.4673,4.4685,4.4693,4.4707,4.4706,4.4689,4.4719,4.472,4.4713,4.4681,4.4671,4.4668,4.4699,4.4699,4.4699,4.468,0,4.4539,4.4546,4.4567,4.4567,4.4573,4.4598,4.46,4.4614,4.4628,4.4634,4.4649,4.4656,4.4671,4.4676,4.4676,4.4691,4.4683,4.4693,4.4702,4.4702,4.4697,4.4665,4.4655,4.4636,4.4677,4.4677,4.4677,0,4.4513,4.4526,4.4527,4.4551,4.4554,4.4555,4.4569,4.4576,4.4592,4.4602,4.4611,4.4628,4.4631,4.4646,4.4652,4.4658,4.4663,4.4671,4.467,4.4672,4.4688,4.4666,4.4631,4.4628,4.4673,4.4674,4.4674,0,4.4479,4.4496,4.4499,4.4507,4.4534,4.4534,4.4545,4.4562,4.4569,4.4581,4.4585,4.4597,4.4603,4.4612,4.4631,4.464,4.4634,4.4651,4.4642,4.4642,4.464,4.464,4.4605,4.4643,4.4643,4.4643,4.4643,0,4.4452,4.4452,4.4484,4.4486,4.4487,4.4511,4.4511,4.4524,4.4539,4.4544,4.4566,4.457,4.4595,4.4602,4.4617,4.4619,4.4622,4.463,4.4634,4.4628,4.4627,4.4631,4.4633,4.4642,4.4642,4.4642,4.4643,0,4.4413,4.4435,4.4441,4.4466,4.4473,4.4472,4.4494,4.4497,4.4512,4.4518,4.452,4.4544,4.4553,4.4574,4.4588,4.4598,4.4596,4.4604,4.4591,4.4594,4.4585,4.4585,4.4552,4.4549,4.4588,4.4587,4.4587,0,4.4395,4.4396,4.4422,4.4427,4.4438,4.4446,4.4454,4.4477,4.4484,4.4503,4.4503,4.4515,4.4525,4.4538,4.4556,4.4567,4.4574,4.4562,4.4576,4.4571,4.4575,4.4574,4.4575,4.4559,4.4558,4.4558,4.4557,0,4.436,4.4371,4.4381,4.4396,4.4404,4.4416,4.4429,4.4432,4.4459,4.4466,4.4476,4.4484,4.4499,4.451,4.4524,4.4534,4.455,4.4553,4.4552,4.4546,4.4539,4.4543,4.4583,4.4553,4.4554,4.4554,4.4554,4.4554,4.4331,4.4333,4.4352,4.4363,4.4376,4.4388,4.4393,4.4409,4.4419,4.4434,4.4447,4.4456,4.4473,4.4493,4.4503,4.451,4.4518,4.4516,4.4516,4.4515,4.4513,4.4538,4.4513,4.4513,4.4513,4.4513,4.4513,0,4.4297,4.4311,4.4321,4.434,4.4349,4.4364,4.438,4.4386,4.4394,4.4409,4.4419,4.4431,4.4441,4.4461,4.4473,4.4475,4.4482,4.4477,4.4477,4.448,4.4505,4.4505,4.4471,4.4471,4.4471,4.4471,4.4471,4.4471,4.4281,4.4286,4.4299,4.4311,4.4325,4.4335,4.4343,4.4354,4.4366,4.4379,4.4388,4.4401,4.4418,4.4432,4.4442,4.4448,4.4451,4.4444,4.4451,4.4474,4.4478,4.4482,4.4482,4.4444,4.4444,4.4426,4.4426,4.4426]}]]